Regional Weather Roundup
Issued by NWS

Home | Current Version | Previous Version | Graphics & Text | Print | Product List | Glossary On
Versions: 1 2 3 4 5 6 7 8 9 10 11 12 13 14 15 16 17 18 19 20 21 22 23 24 25 26 27 28 29 30 31 32 33 34 35 36 37 38 39 40 41 42 43 44 45 46 47 48 49 50
644
ASUS44 KJAN 160503
RWRMS

MISSISSIPPI HOURLY WEATHER ROUNDUP
NATIONAL WEATHER SERVICE JACKSON MS
1200 AM CDT TUE SEP 16 2014

NOTE: "FAIR: INDICATES FEW OR NO CLOUDS BELOW 12,000 FEET WITH NO
SIGNIFICANT WEATHER AND/OR OBSTRUCTIONS TO VISIBILITY.

MSZ001>002-007>008-010>013-018>021-025>028-034>036-160600-
NORTHWEST MISSISSIPPI

CITY           SKY/WX    TMP DP  RH WIND       PRES   REMARKS
CLARKSDALE       N/A     72  68  88 CALM      30.13F
CLEVELAND      FAIR      72  69  89 N5        30.11F
GREENWOOD      CLOUDY    73  70  90 N3        30.11F
GREENVILLE     MOCLDY    74  66  76 CALM      30.12S
GRENADA        MOCLDY    72  68  88 CALM      30.13S
OLIVE BRANCH   PTCLDY    72  70  94 CALM      30.13S
OXFORD         FAIR      70  68  94 CALM      30.15F
TUNICA         CLOUDY    70  68  94 SW3       30.13S
$$

MSZ003>006-009-014>017-022>024-029>033-037>039-160600-
NORTHEAST MISSISSIPPI

CITY           SKY/WX    TMP DP  RH WIND       PRES   REMARKS
COLUMBUS AFB   CLOUDY    73  71  91 NW3       30.11S
CORINTH        FAIR      70  68  94 CALM      30.11F
GOLDN TRIANGLE CLOUDY    73  66  78 NW7       30.11F
STARKVILLE     FAIR      73  70  88 CALM      30.11F
TUPELO         CLOUDY    74  68  81 N3        30.11F
$$

MSZ040-058-160600-
CENTRAL MISSISSIPPI

CITY           SKY/WX    TMP DP  RH WIND       PRES   REMARKS
JACKSON INTL   PTCLDY    75  72  90 CALM      30.10S
JACKSON HAWKNS MOCLDY    79  70  74 NE3       30.11F
MERIDIAN KEY   CLOUDY    75  72  90 CALM      30.09F
MERIDIAN NAS   CLOUDY    74  72  93 E3        30.10F
RAYMOND        FAIR      73  68  83 CALM      30.11S
VICKSBURG      MOCLDY    76  69  79 N3        30.10F
$$

MSZ059>079-160600-
SOUTH MISSISSIPPI

CITY           SKY/WX    TMP DP  RH WIND       PRES   REMARKS
BROOKHAVEN     FAIR      73  73 100 CALM      30.13S
HATTIESBURG    PTCLDY    76  73  91 CALM      30.10S
MCCOMB         PTCLDY    78  74  87 CALM      30.11F
NATCHEZ        PTCLDY    75  72  88 CALM      30.11S
PINE BELT      CLEAR    N/A N/A N/A CALM      30.11S
$$

MSZ080>082-160600-
COASTAL MISSISSIPPI

CITY           SKY/WX    TMP DP  RH WIND       PRES   REMARKS
BILOXI         PTCLDY    79  76  90 N5        30.08S
PASCAGOULA     MOCLDY    76  75  97 CALM      30.07F
GULFPORT       PTCLDY    78  75  90 N5        30.07F
$$



USA.gov is the U.S. government's official web portal to all federal, state and local government web resources and services.